sat.trackr.live / text

‹ back to catalog

AETHER-6

NORAD 67377 · 2026-004Q

PAYLOAD ACTIVE UNKNOWN

§ Identity

Operator
Country
CA
Launch date
2026-01-11
Launch site
AFWTR
Launch vehicle
Mass (kg)
RCS (m²)

External: N2YO · Heavens-Above · Gunter

§ Orbital elements

Epoch: 2026-09-20T22:24:08.239680Z

Period
96.91 min
Inclination
97.8111°
Eccentricity
0.0000687
Mean motion
14.85859730 rev/d
Perigee alt
610.4 km
Apogee alt
611.4 km
Semi-major
6,989.0 km
B*
4.8347e-5
RAAN
260.7996°
Arg perigee
162.7689°
Mean anomaly
197.3550°
Rev number
3,750

§ Raw data

AETHER-61 67377U 26004Q   26263.93342870  .00000368  00000+0  48347-4 0  99932 67377  97.8111 260.7996 0000687 162.7689 197.3550 14.85859730 37503

JSON: /api/v1/satellites/67377 · /tle

For live sub-satellite position, see the globe view (requires WebGL).

§ Visibility from observer

Set your observer location to see the next 7 days of passes ≥ 10°. The values pass through the URL so the page stays shareable.

No JS? Fill the form by hand. The geolocation button needs JavaScript.